TimeCDT,TemperatureF,Dew PointF,Humidity,Sea Level PressureIn,VisibilityMPH,Wind Direction,Wind SpeedMPH,Gust SpeedMPH,PrecipitationIn,Events,Conditions,WindDirDegrees,DateUTC
12:15 AM,65.3,65.3,100,30.13,7.0,ESE,6.9,-,N/A,,Clear,110,2013-03-30 05:15:00
12:35 AM,65.3,65.3,100,30.12,10.0,East,6.9,-,N/A,,Clear,100,2013-03-30 05:35:00
12:55 AM,65.1,65.1,100,30.13,10.0,East,3.5,-,N/A,,Clear,90,2013-03-30 05:55:00
1:15 AM,65.3,65.3,100,30.14,10.0,Calm,Calm,-,N/A,,Scattered Clouds,0,2013-03-30 06:15:00
1:35 AM,64.9,64.9,100,30.14,10.0,Calm,Calm,-,N/A,,Mostly Cloudy,0,2013-03-30 06:35:00
1:55 AM,64.6,64.6,100,30.12,10.0,NE,4.6,-,N/A,,Mostly Cloudy,50,2013-03-30 06:55:00
2:15 AM,63.5,63.5,100,30.12,7.0,ESE,4.6,-,N/A,,Scattered Clouds,120,2013-03-30 07:15:00
2:35 AM,63.0,63.0,100,30.11,10.0,East,3.5,-,N/A,,Clear,100,2013-03-30 07:35:00
2:55 AM,63.5,63.5,100,30.11,10.0,Calm,Calm,-,N/A,,Scattered Clouds,0,2013-03-30 07:55:00
3:15 AM,63.9,63.9,100,30.11,10.0,East,4.6,-,N/A,,Mostly Cloudy,80,2013-03-30 08:15:00
3:35 AM,63.0,63.0,100,30.10,7.0,East,5.8,-,N/A,,Scattered Clouds,100,2013-03-30 08:35:00
3:55 AM,62.4,62.4,100,30.08,7.0,SE,6.9,-,N/A,,Clear,130,2013-03-30 08:55:00
4:15 AM,63.0,63.0,100,30.06,10.0,SE,10.4,-,N/A,,Clear,140,2013-03-30 09:15:00
4:35 AM,64.0,64.0,100,30.07,10.0,SE,6.9,-,N/A,,Clear,140,2013-03-30 09:35:00
4:55 AM,64.2,64.2,100,30.08,10.0,East,4.6,-,N/A,,Clear,80,2013-03-30 09:55:00
5:15 AM,62.8,62.8,100,30.08,10.0,Calm,Calm,-,N/A,,Scattered Clouds,0,2013-03-30 10:15:00
5:35 AM,62.2,62.2,100,30.08,7.0,ENE,3.5,-,N/A,,Scattered Clouds,70,2013-03-30 10:35:00
5:55 AM,60.8,60.8,100,30.08,5.0,East,3.5,-,N/A,,Scattered Clouds,80,2013-03-30 10:55:00
6:15 AM,60.1,60.1,100,30.08,0.5,SE,3.5,-,N/A,Fog,Fog,140,2013-03-30 11:15:00
6:35 AM,60.1,60.1,100,30.08,3.0,ESE,3.5,-,N/A,,Clear,120,2013-03-30 11:35:00
6:55 AM,59.7,59.7,100,30.08,4.0,ESE,4.6,-,N/A,,Clear,120,2013-03-30 11:55:00
7:15 AM,60.8,60.8,100,30.07,5.0,SSE,6.9,-,N/A,,Clear,150,2013-03-30 12:15:00
7:35 AM,62.4,62.4,100,30.07,7.0,SSE,8.1,-,N/A,,Clear,160,2013-03-30 12:35:00
7:55 AM,63.3,63.3,100,30.12,7.0,North,5.8,-,N/A,,Clear,10,2013-03-30 12:55:00
8:15 AM,63.7,63.7,100,30.13,7.0,North,5.8,-,N/A,,Clear,360,2013-03-30 13:15:00
8:35 AM,64.4,64.4,100,30.12,7.0,ENE,3.5,-,N/A,,Scattered Clouds,70,2013-03-30 13:35:00
8:55 AM,65.7,65.7,100,30.11,10.0,ENE,4.6,-,N/A,,Clear,60,2013-03-30 13:55:00
9:15 AM,67.5,67.5,100,30.12,10.0,NE,3.5,-,N/A,,Clear,50,2013-03-30 14:15:00
9:35 AM,70.3,69.6,98,30.12,10.0,NE,3.5,-,N/A,,Clear,50,2013-03-30 14:35:00
9:55 AM,72.9,67.5,83,30.11,10.0,ESE,4.6,-,N/A,,Clear,110,2013-03-30 14:55:00
10:15 AM,74.1,64.4,72,30.11,10.0,SE,5.8,-,N/A,,Scattered Clouds,140,2013-03-30 15:15:00
10:35 AM,75.9,62.4,63,30.11,10.0,SE,11.5,-,N/A,,Scattered Clouds,140,2013-03-30 15:35:00
10:55 AM,77.0,62.4,61,30.10,10.0,South,10.4,-,N/A,,Scattered Clouds,190,2013-03-30 15:55:00
11:15 AM,77.0,61.5,59,30.06,10.0,South,25.3,-,N/A,,Scattered Clouds,180,2013-03-30 16:15:00
11:35 AM,76.8,61.0,58,30.08,10.0,South,13.8,24.2,N/A,,Clear,180,2013-03-30 16:35:00
11:55 AM,78.4,61.7,56,30.08,10.0,SSE,12.7,-,N/A,,Scattered Clouds,160,2013-03-30 16:55:00
12:15 PM,78.4,61.9,57,30.08,10.0,SSE,10.4,17.3,N/A,,Mostly Cloudy,160,2013-03-30 17:15:00
12:35 PM,80.1,62.4,55,30.08,10.0,SSE,12.7,-,N/A,,Mostly Cloudy,160,2013-03-30 17:35:00
12:55 PM,79.5,62.2,55,30.08,10.0,South,12.7,18.4,N/A,,Mostly Cloudy,190,2013-03-30 17:55:00
1:15 PM,79.3,62.4,56,30.07,10.0,SSE,13.8,-,N/A,,Overcast,160,2013-03-30 18:15:00
1:35 PM,79.7,62.8,56,30.06,10.0,SSE,13.8,17.3,N/A,,Mostly Cloudy,160,2013-03-30 18:35:00
1:55 PM,79.3,63.5,58,30.06,10.0,South,11.5,17.3,N/A,,Mostly Cloudy,180,2013-03-30 18:55:00
2:15 PM,79.3,63.5,58,30.05,10.0,SSE,11.5,-,N/A,,Mostly Cloudy,150,2013-03-30 19:15:00
2:35 PM,79.3,63.3,58,30.04,10.0,South,10.4,16.1,N/A,,Mostly Cloudy,170,2013-03-30 19:35:00
2:55 PM,80.6,63.7,56,30.03,10.0,SSE,11.5,19.6,N/A,,Mostly Cloudy,160,2013-03-30 19:55:00
3:15 PM,79.5,63.7,58,30.03,10.0,South,12.7,19.6,N/A,,Mostly Cloudy,180,2013-03-30 20:15:00
3:35 PM,79.2,63.7,59,30.01,10.0,South,13.8,19.6,N/A,,Mostly Cloudy,170,2013-03-30 20:35:00
3:55 PM,80.4,64.0,57,30.00,10.0,SSE,15.0,20.7,N/A,,Scattered Clouds,160,2013-03-30 20:55:00
4:15 PM,79.5,64.4,60,29.99,10.0,South,15.0,-,N/A,,Scattered Clouds,180,2013-03-30 21:15:00
4:35 PM,79.0,64.4,61,30.00,10.0,South,15.0,20.7,N/A,,Mostly Cloudy,170,2013-03-30 21:35:00
4:55 PM,79.0,64.8,62,29.99,10.0,South,16.1,19.6,N/A,,Overcast,170,2013-03-30 21:55:00
5:15 PM,80.2,65.3,60,29.99,10.0,SSE,12.7,19.6,N/A,,Overcast,160,2013-03-30 22:15:00
5:35 PM,79.3,65.5,62,29.98,10.0,South,11.5,18.4,N/A,,Mostly Cloudy,170,2013-03-30 22:35:00
5:55 PM,78.1,65.7,65,29.99,10.0,SSE,13.8,-,N/A,,Mostly Cloudy,160,2013-03-30 22:55:00
6:15 PM,76.5,65.8,70,29.98,10.0,South,15.0,-,N/A,,Mostly Cloudy,170,2013-03-30 23:15:00
6:35 PM,76.1,66.4,72,29.98,10.0,SSE,13.8,-,N/A,,Mostly Cloudy,160,2013-03-30 23:35:00
6:55 PM,74.8,66.6,75,29.98,10.0,SSE,13.8,-,N/A,,Mostly Cloudy,150,2013-03-30 23:55:00
7:15 PM,73.8,66.9,79,29.99,10.0,SSE,10.4,-,N/A,,Overcast,150,2013-03-31 00:15:00
7:35 PM,72.7,67.1,83,29.99,10.0,SSE,10.4,-,N/A,,Overcast,160,2013-03-31 00:35:00
7:55 PM,71.6,67.5,87,29.99,10.0,SSE,8.1,-,N/A,,Mostly Cloudy,150,2013-03-31 00:55:00
8:15 PM,70.9,70.2,98,29.98,10.0,SSE,6.9,-,N/A,,Mostly Cloudy,150,2013-03-31 01:15:00
8:35 PM,70.2,70.2,100,29.98,10.0,SSE,5.8,-,N/A,,Mostly Cloudy,150,2013-03-31 01:35:00
8:55 PM,69.6,69.6,100,29.98,10.0,SSE,5.8,-,N/A,,Scattered Clouds,150,2013-03-31 01:55:00
9:15 PM,68.9,68.9,100,29.99,10.0,SSE,5.8,-,N/A,,Clear,150,2013-03-31 02:15:00
9:35 PM,68.4,68.4,100,30.00,10.0,SSE,5.8,-,N/A,,Clear,150,2013-03-31 02:35:00
9:55 PM,68.0,68.0,100,30.00,10.0,SSE,5.8,-,N/A,,Clear,150,2013-03-31 02:55:00
10:15 PM,68.0,68.0,100,30.00,10.0,SE,6.9,-,N/A,,Clear,140,2013-03-31 03:15:00
10:35 PM,67.6,67.6,100,30.00,7.0,SSE,5.8,-,N/A,,Clear,150,2013-03-31 03:35:00
10:55 PM,67.3,67.3,100,30.00,7.0,SSE,4.6,-,N/A,,Clear,150,2013-03-31 03:55:00
11:15 PM,66.6,66.6,100,30.00,7.0,SSE,3.5,-,N/A,,Clear,150,2013-03-31 04:15:00
11:35 PM,66.2,66.2,100,30.01,7.0,South,4.6,-,N/A,,Clear,170,2013-03-31 04:35:00
11:55 PM,66.0,66.0,100,30.00,7.0,SSE,4.6,-,N/A,,Clear,150,2013-03-31 04:55:00